Date String (YYYY-MM-DD hh:mm:ss) UTC,Instrument flags,Ambient pressure (hPa),Sample flow (lpm),Bypass flow (lpm),Sample temperature (°C),Ambient temperature (°C),ASC tube jacket temperature (°C),LED temperature (°C),Box temperature (°C),Sample RH (%),Span deviation,Mass concentration (μg/m³),Mass concentration (μg/m³),Mass concentration (μg/m³)
DateTimeUTC,F1_M11,P_M11,Q1_M11,Q2_M11,T1_M11,T2_M11,T3_M11,T4_M11,T5_M11,U1_M11,ZSPAN_M11,X0_M11,X2_M11,X1_M11
2022-04-18 00:00:00,,0826.5,4.99,0.00,27.0,26.3,00.0,35.9,28.8,11.5,0000.0,0026.59,0008.59,0002.92
2022-04-18 00:01:00,,0826.5,5.01,0.00,27.0,26.3,00.0,35.9,28.9,11.5,0000.0,0027.25,0008.59,0002.90
2022-04-18 00:02:00,,0826.5,5.01,0.00,27.0,26.3,00.0,35.9,28.9,11.5,0000.0,0027.51,0008.50,0002.88
2022-04-18 00:03:00,,0826.5,5.00,0.00,27.0,26.3,00.0,35.9,28.9,11.5,0000.0,0027.76,0008.45,0002.89
2022-04-18 00:04:00,,0826.6,5.00,0.00,27.0,26.3,00.0,35.9,28.9,11.6,0000.0,0027.90,0008.43,0002.89
2022-04-18 00:05:00,,0826.5,5.00,0.00,27.0,26.3,00.0,35.9,28.8,11.7,0000.0,0028.01,0008.51,0002.88
2022-04-18 00:06:00,,0826.5,5.00,0.00,27.0,26.3,00.0,35.9,28.9,11.6,0000.0,0027.47,0008.55,0002.93
2022-04-18 00:07:00,,0826.6,4.99,0.00,27.1,26.3,00.0,35.9,28.9,11.5,0000.0,0027.26,0008.46,0002.91
2022-04-18 00:08:00,,0826.7,5.00,0.00,27.1,26.2,00.0,35.9,28.9,11.5,0000.0,0027.66,0008.32,0002.91
2022-04-18 00:09:00,,0826.7,5.01,0.00,27.1,26.2,00.0,35.9,29.0,11.6,0000.0,0027.34,0008.26,0002.91
2022-04-18 00:10:00,,0826.7,5.00,0.00,27.1,26.2,00.0,35.9,28.9,11.7,0000.0,0027.48,0008.25,0002.87
2022-04-18 00:11:00,,0826.6,4.99,0.00,27.0,26.2,00.0,35.9,28.8,11.9,0000.0,0027.64,0008.14,0002.84
2022-04-18 00:12:00,,0826.6,5.00,0.00,27.0,26.2,00.0,35.9,28.8,11.9,0000.0,0027.76,0008.10,0002.82
2022-04-18 00:13:00,,0826.6,5.00,0.00,27.0,26.1,00.0,35.9,28.8,11.9,0000.0,0028.35,0008.15,0002.82
2022-04-18 00:14:00,,0826.6,5.00,0.00,27.0,26.1,00.0,35.9,28.8,12.1,0000.0,0028.01,0008.13,0002.79
2022-04-18 00:15:00,,0826.6,5.02,0.00,27.0,26.1,00.0,35.9,28.7,12.1,0000.0,0027.66,0008.14,0002.78
2022-04-18 00:16:00,,0826.7,4.99,0.00,26.9,26.0,00.0,35.9,28.7,11.9,0000.0,0027.54,0007.99,0002.73
2022-04-18 00:17:00,,0826.8,5.00,0.00,26.9,26.0,00.0,35.9,28.7,11.8,0000.0,0027.46,0007.91,0002.67
2022-04-18 00:18:00,,0826.8,4.99,0.00,26.9,26.0,00.0,35.9,28.6,11.8,0000.0,0027.19,0007.94,0002.66
2022-04-18 00:19:00,,0826.8,5.00,0.00,26.9,26.0,00.0,35.9,28.6,11.9,0000.0,0026.49,0007.98,0002.66
2022-04-18 00:20:00,,0826.7,5.00,0.00,26.9,26.1,00.0,35.9,28.7,12.0,0000.0,0026.00,0007.98,0002.66
2022-04-18 00:21:00,,0826.7,5.00,0.00,26.9,26.1,00.0,35.8,28.6,12.2,0000.0,0025.90,0007.83,0002.66
2022-04-18 00:22:00,,0826.7,5.00,0.00,26.9,26.1,00.0,35.8,28.6,12.2,0000.0,0025.15,0007.75,0002.62
2022-04-18 00:23:00,,0826.7,5.02,0.00,26.8,26.1,00.0,35.8,28.6,12.3,0000.0,0024.50,0007.60,0002.62
2022-04-18 00:24:00,,0826.8,5.00,0.00,26.8,26.0,00.0,35.8,28.6,12.3,0000.0,0023.60,0007.44,0002.56
2022-04-18 00:25:00,,0826.8,4.99,0.00,26.8,26.0,00.0,35.8,28.5,12.4,0000.0,0022.88,0007.40,0002.54
2022-04-18 00:26:00,,0826.8,5.01,0.00,26.8,26.0,00.0,35.8,28.5,12.5,0000.0,0022.19,0007.30,0002.50
2022-04-18 00:27:00,,0826.9,4.99,0.00,26.8,25.9,00.0,35.8,28.5,12.4,0000.0,0021.17,0007.27,0002.50
2022-04-18 00:28:00,,0826.8,5.00,0.00,26.7,25.9,00.0,35.8,28.5,12.4,0000.0,0020.76,0007.12,0002.48
2022-04-18 00:29:00,,0826.9,4.99,0.00,26.7,26.0,00.0,35.7,28.5,12.4,0000.0,0020.36,0006.94,0002.45
2022-04-18 00:30:00,,0826.8,5.00,0.00,26.7,26.0,00.0,35.7,28.5,12.5,0000.0,0020.45,0006.79,0002.41
2022-04-18 00:31:00,,0826.9,5.02,0.00,26.7,26.0,00.0,35.7,28.5,12.4,0000.0,0020.19,0006.67,0002.36
2022-04-18 00:32:00,,0826.9,5.01,0.00,26.7,26.0,00.0,35.7,28.5,12.4,0000.0,0020.27,0006.63,0002.34
2022-04-18 00:33:00,,0827.0,4.99,0.00,26.7,25.9,00.0,35.7,28.5,12.5,0000.0,0020.31,0006.66,0002.34
2022-04-18 00:34:00,,0826.8,4.99,0.00,26.7,25.9,00.0,35.7,28.4,12.6,0000.0,0019.82,0006.66,0002.33
2022-04-18 00:35:00,,0826.8,5.00,0.00,26.7,25.9,00.0,35.7,28.4,12.6,0000.0,0019.54,0006.66,0002.33
2022-04-18 00:36:00,,0826.9,4.99,0.00,26.7,25.9,00.0,35.7,28.4,12.5,0000.0,0020.15,0006.72,0002.32
2022-04-18 00:37:00,,0826.8,5.00,0.00,26.7,25.9,00.0,35.7,28.5,12.7,0000.0,0020.06,0006.75,0002.32
2022-04-18 00:38:00,,0827.1,5.00,0.00,26.7,25.9,00.0,35.7,28.4,12.8,0000.0,0019.89,0006.76,0002.31
2022-04-18 00:39:00,,0826.8,5.01,0.00,26.6,25.9,00.0,35.7,28.4,12.8,0000.0,0019.53,0006.71,0002.28
2022-04-18 00:40:00,,0826.8,5.01,0.00,26.7,25.9,00.0,35.6,28.4,12.6,0000.0,0019.70,0006.78,0002.27
2022-04-18 00:41:00,,0826.9,5.00,0.00,26.7,25.9,00.0,35.6,28.4,12.6,0000.0,0019.51,0006.76,0002.26
2022-04-18 00:42:00,,0826.8,4.99,0.00,26.7,25.9,00.0,35.6,28.5,12.6,0000.0,0019.67,0006.74,0002.24
2022-04-18 00:43:00,,0826.9,5.00,0.00,26.7,26.0,00.0,35.6,28.5,12.6,0000.0,0020.07,0006.79,0002.22
2022-04-18 00:44:00,,0826.9,5.02,0.00,26.7,26.0,00.0,35.6,28.5,12.4,0000.0,0020.87,0006.87,0002.23
2022-04-18 00:45:00,,0826.9,5.00,0.00,26.7,26.0,00.0,35.6,28.5,12.4,0000.0,0021.27,0006.95,0002.24
2022-04-18 00:46:00,,0826.9,4.99,0.00,26.7,26.0,00.0,35.6,28.5,12.5,0000.0,0021.61,0007.01,0002.27
2022-04-18 00:47:00,,0826.8,4.99,0.00,26.7,26.0,00.0,35.6,28.5,12.5,0000.0,0020.68,0006.92,0002.26
2022-04-18 00:48:00,,0826.9,5.00,0.00,26.7,26.0,00.0,35.6,28.5,12.5,0000.0,0020.38,0006.81,0002.25
2022-04-18 00:49:00,,0826.8,5.01,0.00,26.7,26.1,00.0,35.6,28.6,12.5,0000.0,0020.23,0006.71,0002.23
2022-04-18 00:50:00,,0826.8,5.00,0.00,26.8,26.1,00.0,35.6,28.6,12.3,0000.0,0020.72,0006.78,0002.23
2022-04-18 00:51:00,,0827.0,5.00,0.00,26.8,26.1,00.0,35.7,28.7,12.2,0000.0,0020.80,0006.81,0002.27
2022-04-18 00:52:00,,0826.9,4.99,0.00,26.8,26.2,00.0,35.7,28.7,12.3,0000.0,0020.58,0006.80,0002.28
2022-04-18 00:53:00,,0826.9,5.00,0.00,26.8,26.2,00.0,35.7,28.7,12.3,0000.0,0020.34,0006.80,0002.30
2022-04-18 00:54:00,,0826.9,5.00,0.00,26.9,26.2,00.0,35.7,28.8,11.9,0000.0,0019.41,0006.79,0002.34
2022-04-18 00:55:00,,0826.9,5.00,0.00,26.9,26.3,00.0,35.7,28.8,11.8,0000.0,0018.28,0006.69,0002.37
2022-04-18 00:56:00,,0826.9,5.00,0.00,26.9,26.3,00.0,35.7,28.8,11.8,0000.0,0018.24,0006.60,0002.36
2022-04-18 00:57:00,,0826.9,5.00,0.00,26.9,26.3,00.0,35.7,28.8,11.8,0000.0,0018.63,0006.57,0002.35
2022-04-18 00:58:00,,0826.9,5.00,0.00,26.9,26.3,00.0,35.7,28.8,11.8,0000.0,0018.66,0006.55,0002.36
2022-04-18 00:59:00,,0827.0,4.99,0.00,27.0,26.3,00.0,35.8,28.8,11.7,0000.0,0018.99,0006.61,0002.40
